Find Starlink 36611

NORAD ID: 67830 Int'l Des: 2026-033 Owner: SPXS Country: US Constellation: starlink operational
LEOCIRCULAR

Live Position

Loading 3D Globe...

About Starlink 36611

Description loading...

Upcoming Passes

Passes for default location (London). Set your location on the main map for personalized predictions.

Altitude History

Loading altitude history...

Two-Line Element Set

1 67830U 26033K 26105.27355240 .00005009 00000-0 19136-3 0 9997
2 67830 43.0032 60.9130 0001712 297.7008 62.3670 15.27595049 10261
Epoch: Apr 15, 2026 • Age: 29 hours

Current Status

Altitude 484.6 km
Velocity 7.62 km/s
Sub-Earth Point -8.13°S, 136.52°W
Launch Date Feb 16, 2026
Age 0.1 years
Type internet

Technical Details

Classification Payload
Mass 575.00 kg
Dry Mass 530.00 kg
Total Mass 575.00 kg
Length 0.30 m
Diameter 4.10 m
Span 29.00 m
Shape Box + pan
Manufacturer SPXS
Bus Type Starlink V2MO
Phase Status In Orbit
Owner/State SPXS/US

Most Searched